Location: Black Swamp Observatory
(41.3920°N, 84.1250°W)
Time: 19:48:08
(UTC-04:00)

Amateur Radio Satellites - All Passes

Search period start: 30 September 2016 19:18
Search period end: 01 October 2016 19:18
Location: Black Swamp Observatory, 41.3920°N, 84.1250°W

Satellite Date Start Highest point End Downlink Frequencies (MHz)
Time Altitude Azimuth
CUSAT 1 30 Sep 19:20:11 19:26:27 52° 91° (E) 19:33:55 437.405
CUBESAT XI-V 30 Sep 19:24:37 19:29:04 43° 288° (WNW) 19:33:28 437.345
CUTE 1.7 + AOD 2 30 Sep 19:31:52 19:34:15 15° 64° (ENE) 19:36:38 437.475
NOAA 18 30 Sep 19:32:53 19:38:18 66° 257° (WSW) 19:43:45 137.9125
CANX-2 30 Sep 19:33:14 19:36:04 18° 66° (ENE) 19:38:55 2200.000
BRITE-PL 30 Sep 19:37:50 19:42:04 21° 268° (W) 19:46:16 437.365/2234.400
NOAA 15 30 Sep 19:39:52 19:44:46 37° 262° (W) 19:49:41 137.62
DANDE 30 Sep 19:40:03 19:44:40 27° 83° (E) 19:50:19 436.750
Cosmos 2499 30 Sep 19:45:58 19:52:55 36° 73° (ENE) 20:00:17 435.465 / 435.565
STRAND 1 30 Sep 20:04:26 20:08:30 23° 94° (E) 20:12:33 437.568
CINEMA 3 30 Sep 20:06:14 20:10:29 48° 73° (ENE) 20:14:36 145.822/145.860
CUTE-I 30 Sep 20:07:03 20:11:27 26° 265° (W) 20:15:54 437.470
Cubesat XI-IV 30 Sep 20:07:56 20:12:19 26° 265° (W) 20:16:45 437.490
GONETS M04 30 Sep 20:10:30 20:19:13 60° 78° (ENE) 20:27:48
HO-68 30 Sep 20:20:22 20:27:28 70° 70° (ENE) 20:34:36 435.675
COMPASS 1 30 Sep 20:27:09 20:30:41 27° 69° (ENE) 20:34:16 437.405
RS-15 30 Sep 20:32:40 20:44:11 76° 117° (ESE) 20:56:21 29.354- 29.394
ISS 30 Sep 20:32:54 20:36:09 82° 326° (NNW) 20:39:25 145.825
AO-85 30 Sep 20:37:29 20:42:08 33° 115° (ESE) 20:46:33 145.980
FUNcube-1 30 Sep 20:44:53 20:46:43 13° 63° (ENE) 20:48:35 145.935
CUBEBUG 2 30 Sep 20:52:53 20:56:47 40° 72° (ENE) 21:00:40 437.445
DOVE 4 30 Sep 20:56:19 20:59:08 15° 268° (W) 21:01:52 437.250
SEEDS 30 Sep 21:00:55 21:05:08 84° 258° (WSW) 21:09:23 437.485
CUSAT 1 30 Sep 21:02:53 21:08:50 32° 293° (WNW) 21:15:40 437.405
UWE-3 30 Sep 21:04:24 21:08:10 35° 71° (ENE) 21:11:57 435.000/436.395/437.385
CUTE 1.7 + AOD 2 30 Sep 21:05:31 21:09:38 51° 261° (W) 21:13:49 437.475
CANX-2 30 Sep 21:07:34 21:11:35 41° 262° (W) 21:15:39 2200.000
AAUSAT CUBESAT 2 30 Sep 21:14:18 21:18:27 73° 76° (ENE) 21:22:39 437.432
Oscar 11 30 Sep 21:18:22 21:22:11 32° 70° (ENE) 21:26:02 145.826/435.025
DANDE 30 Sep 21:21:35 21:26:55 47° 288° (WNW) 21:33:49 436.750
ZACube-1 30 Sep 21:26:26 21:30:17 38° 72° (ENE) 21:34:09 437.345
Cosmos 2499 30 Sep 21:38:54 21:46:06 46° 270° (W) 21:53:48 435.465 / 435.565
STRAND 1 30 Sep 21:42:58 21:47:50 43° 290° (WNW) 21:52:40 437.568
CINEMA 3 30 Sep 21:45:24 21:47:52 15° 268° (W) 21:50:17 145.822/145.860
COMPASS 1 30 Sep 22:02:45 22:06:12 25° 265° (W) 22:09:40 437.405
DELFI C3 30 Sep 22:07:15 22:11:01 42° 72° (ENE) 22:14:50 145.870
GONETS M04 30 Sep 22:08:13 22:15:25 30° 278° (W) 22:22:34
HO-68 30 Sep 22:10:27 22:15:45 22° 268° (W) 22:21:05 435.675
ISS 30 Sep 22:10:35 22:13:02 19° 343° (NNW) 22:15:29 145.825
AO-85 30 Sep 22:17:51 22:22:34 35° 310° (NW) 22:27:01 145.980
FUNcube-1 30 Sep 22:18:27 22:22:29 55° 260° (W) 22:26:34 145.935
CUBEBUG 2 30 Sep 22:30:59 22:33:36 16° 268° (W) 22:36:12 437.445
PRISM 30 Sep 22:35:45 22:39:55 79° 104° (ESE) 22:44:00 437.425
UWE-3 30 Sep 22:41:52 22:44:45 18° 267° (W) 22:47:39 435.000/436.395/437.385
RS-15 30 Sep 22:46:58 22:57:50 40° 323° (NW) 23:09:12 29.354- 29.394
ESTCUBE 1 30 Sep 22:53:09 22:55:11 13° 62° (ENE) 22:57:14 437.505/2401.250
HUMSAT D 30 Sep 22:53:55 22:57:58 73° 76° (ENE) 23:02:07 437.325/437.525
Oscar 11 30 Sep 22:54:58 22:58:21 22° 266° (W) 23:01:45 145.826/435.025
ANTELSAT 30 Sep 23:00:37 23:03:56 20° 94° (E) 23:07:17 437.575/2403.000
ZACube-1 30 Sep 23:04:04 23:06:44 17° 268° (W) 23:09:25 437.345
TIGRISAT 30 Sep 23:19:44 23:23:39 30° 96° (E) 23:27:38 435.000
SO-50 30 Sep 23:28:00 23:32:07 31° 48° (NE) 23:36:08 436.795
AISAT 30 Sep 23:30:39 23:33:24 16° 64° (ENE) 23:36:10 437.250
DELFI C3 30 Sep 23:43:47 23:46:03 15° 268° (W) 23:48:21 145.870
M-CUBED/EXP-1 PRIME 30 Sep 23:44:02 23:46:38 17° 63° (ENE) 23:49:07 437.505
ISS 30 Sep 23:48:40 23:50:28 14° 4° (N) 23:52:18 145.825
JAS-2 30 Sep 23:51:25 23:55:26 15° 84° (E) 23:59:18 435.910
DX 1 30 Sep 23:54:23 23:57:15 17° 64° (ENE) 00:00:07 434.975-435.025
UNISAT 6 01 Oct 00:01:05 00:05:32 89° 301° (WNW) 00:10:05 437.425
CUBEBUG 1 01 Oct 00:07:39 00:11:54 47° 72° (ENE) 00:16:07 437.445
50 SAT 01 Oct 00:12:00 00:15:18 33° 71° (ENE) 00:18:38 437.505
VELOX 1 01 Oct 00:12:15 00:16:25 41° 71° (ENE) 00:20:35 145.980
BEESAT 3 01 Oct 00:20:43 00:23:46 22° 113° (ESE) 00:26:51 437.485
ESTCUBE 1 01 Oct 00:26:54 00:31:24 69° 258° (WSW) 00:35:57 437.505/2401.250
DUCHIFAT 1 01 Oct 00:29:08 00:32:14 20° 94° (E) 00:35:19 145.980
SPROUT 01 Oct 00:32:59 00:36:53 36° 71° (ENE) 00:40:48 437.525
QB50P1 01 Oct 00:34:39 00:38:13 26° 96° (E) 00:41:46 145.935-145.965
ANTELSAT 01 Oct 00:36:38 00:40:45 38° 289° (WNW) 00:44:56 437.575/2403.000
AUBIESAT-1 01 Oct 00:36:39 00:40:31 53° 69° (ENE) 00:44:08 437.475
POPSAT HIP 1 01 Oct 00:48:15 00:52:10 36° 98° (E) 00:56:03 437.405
UKube-1 01 Oct 00:53:34 00:57:48 55° 73° (ENE) 01:02:03 .
TIGRISAT 01 Oct 00:56:34 01:00:13 26° 292° (WNW) 01:03:56 435.000
NANOSAT C BR1 01 Oct 01:02:03 01:06:09 50° 100° (E) 01:10:15 145.865
AISAT 01 Oct 01:05:08 01:09:28 50° 260° (W) 01:13:48 437.250
RS-15 01 Oct 01:06:03 01:15:10 23° 357° (N) 01:24:27 29.354- 29.394
SO-50 01 Oct 01:08:33 01:12:32 30° 246° (WSW) 01:16:26 436.795
M-CUBED/EXP-1 PRIME 01 Oct 01:17:09 01:20:57 38° 256° (WSW) 01:24:30 437.505
BEESAT 2 01 Oct 01:22:19 01:26:08 52° 118° (ESE) 01:30:01 435.950
ISS 01 Oct 01:24:55 01:27:47 27° 24° (NNE) 01:30:40 145.825
QB50P2 01 Oct 01:28:43 01:32:56 70° 285° (WNW) 01:37:08 145.880/145.840
DX 1 01 Oct 01:28:53 01:33:05 45° 260° (W) 01:37:18 434.975-435.025
POLYITAN 1 01 Oct 01:30:53 01:35:06 70° 285° (WNW) 01:39:18 437.675
JAS-2 01 Oct 01:33:42 01:41:37 79° 103° (ESE) 01:49:00 435.910
TISAT 1 01 Oct 01:41:01 01:44:56 40° 71° (ENE) 01:48:51 437.305
Oscar 19 01 Oct 01:41:09 01:42:13 11° 88° (E) 01:43:18 437.125/150
CUBEBUG 1 01 Oct 01:45:41 01:48:24 16° 268° (W) 01:51:08 437.445
50 SAT 01 Oct 01:46:46 01:48:54 15° 267° (W) 01:51:03 437.505
VELOX 1 01 Oct 01:49:54 01:53:01 19° 267° (W) 01:56:10 145.980
BUGSAT 1 01 Oct 01:52:11 01:56:13 70° 102° (ESE) 02:00:14 437.445
Cosmos 2491 01 Oct 01:54:15 02:02:32 42° 73° (ENE) 02:10:44 435.465 / 435.565
BEESAT 3 01 Oct 01:57:42 02:01:14 32° 310° (NW) 02:04:49 437.485
ITUPSAT 1 01 Oct 02:03:37 02:06:31 16° 62° (ENE) 02:09:26 437.325
DUCHIFAT 1 01 Oct 02:04:12 02:07:59 34° 290° (WNW) 02:11:47 145.980
SPROUT 01 Oct 02:09:51 02:12:55 19° 266° (W) 02:16:00 437.525
QB50P1 01 Oct 02:10:23 02:13:55 26° 291° (WNW) 02:17:25 145.935-145.965
SWISSCUBE 01 Oct 02:13:51 02:17:32 23° 65° (ENE) 02:21:15 437.505
AUBIESAT-1 01 Oct 02:13:59 02:15:09 11° 262° (W) 02:16:18 437.475
POPSAT HIP 1 01 Oct 02:24:39 02:27:41 19° 294° (WNW) 02:30:43 437.405
BEESAT 01 Oct 02:26:07 02:30:04 27° 67° (ENE) 02:34:02 436.000
UKube-1 01 Oct 02:32:09 02:34:10 13° 269° (W) 02:36:12 .
NANOSAT C BR1 01 Oct 02:39:07 02:41:27 15° 296° (WNW) 02:43:48 145.865
AIST 2 01 Oct 02:39:12 02:40:31 11° 108° (ESE) 02:41:50 435.215
YUBILEINY 01 Oct 02:52:42 03:00:37 39° 86° (E) 03:08:29 435.215
ISS 01 Oct 03:01:13 03:04:23 44° 221° (SW) 03:07:32 145.825
BEESAT 2 01 Oct 03:01:35 03:04:15 17° 317° (NW) 03:06:56 435.950
Gurwin Techsat 1B 01 Oct 03:03:20 03:08:09 34° 97° (E) 03:12:56 435.225
Oscar 19 01 Oct 03:17:01 03:22:12 87° 283° (WNW) 03:27:19 437.125/150
TISAT 1 01 Oct 03:18:02 03:20:44 17° 267° (W) 03:23:26 437.305
JAS-2 01 Oct 03:19:49 03:25:43 24° 302° (WNW) 03:31:25 435.910
RS-15 01 Oct 03:21:56 03:32:57 35° 32° (NNE) 03:43:49 29.354- 29.394
MOZHAYETS 4 01 Oct 03:22:53 03:25:51 17° 64° (ENE) 03:28:48
KKS-1 01 Oct 03:24:50 03:26:10 11° 61° (ENE) 03:27:30 437.445
BUGSAT 1 01 Oct 03:30:38 03:31:01 10° 298° (WNW) 03:31:22 437.445
Cosmos 2504 01 Oct 03:32:27 03:37:54 23° 83° (E) 03:43:15 435.465 / 435.565
ITUPSAT 1 01 Oct 03:39:10 03:43:51 59° 259° (W) 03:48:36 437.325
SWISSCUBE 01 Oct 03:50:38 03:55:05 39° 262° (W) 03:59:35 437.505
Cosmos 2491 01 Oct 03:51:11 03:59:22 44° 273° (W) 04:07:29 435.465 / 435.565
BEESAT 01 Oct 04:03:27 04:07:43 33° 263° (W) 04:12:01 436.000
PCSat 01 Oct 04:12:17 04:17:19 42° 112° (ESE) 04:22:25 145.827
AIST 2 01 Oct 04:14:20 04:18:24 66° 304° (WNW) 04:22:33 435.215
ITAMSAT 1 01 Oct 04:17:49 04:22:51 45° 99° (E) 04:27:51 435.822/435.867
Gurwin Techsat 1B 01 Oct 04:43:22 04:48:00 31° 293° (WNW) 04:52:37 435.225
YUBILEINY 01 Oct 04:48:55 04:57:14 46° 286° (WNW) 05:05:34 435.215
AO-7 01 Oct 04:50:16 04:58:10 46° 100° (E) 05:06:01 29.400- 29.500
CUBESAT XI-V 01 Oct 04:51:39 04:55:01 20° 65° (ENE) 04:58:24 437.345
KKS-1 01 Oct 04:57:38 05:02:05 77° 256° (WSW) 05:06:33 437.445
MOZHAYETS 4 01 Oct 04:58:10 05:02:35 50° 261° (W) 05:07:05
Oscar 19 01 Oct 04:59:00 05:00:43 12° 302° (WNW) 05:02:24 437.125/150
AO-85 01 Oct 05:09:27 05:12:57 25° 46° (NE) 05:16:16 145.980
STARS 01 Oct 05:21:29 05:25:52 88° 253° (WSW) 05:30:17 437.465
Cosmos 2504 01 Oct 05:23:26 05:30:40 60° 281° (W) 05:37:45 435.465 / 435.565
RS-15 01 Oct 05:34:48 05:47:17 90° 63° (ENE) 05:59:25 29.354- 29.394
CUSAT 1 01 Oct 05:55:15 06:02:16 40° 70° (ENE) 06:08:06 437.405
PCSat 01 Oct 05:56:05 06:00:50 30° 310° (NW) 06:05:36 145.827
AIST 2 01 Oct 05:57:20 05:57:43 10° 324° (NW) 05:58:05 435.215
ITAMSAT 1 01 Oct 05:57:57 06:02:01 23° 296° (WNW) 06:06:05 435.822/435.867
AIST 1 01 Oct 05:59:52 06:04:15 81° 279° (W) 06:08:38
BRITE-PL 01 Oct 06:04:58 06:07:28 14° 89° (E) 06:09:54 437.365/2234.400
HORYU 2 01 Oct 06:08:57 06:12:45 27° 96° (E) 06:16:33 437.375
DANDE 01 Oct 06:17:11 06:24:25 31° 66° (ENE) 06:31:05 436.750
CUBESAT XI-V 01 Oct 06:27:33 06:32:03 45° 261° (W) 06:36:36 437.345
AO-7 01 Oct 06:43:13 06:50:50 42° 299° (WNW) 06:58:26 29.400- 29.500
O/OREOS (USA 219) 01 Oct 06:43:26 06:46:59 23° 102° (ESE) 06:50:34 437.305
LilacSat-2 01 Oct 06:43:27 06:44:25 11° 90° (E) 06:45:23 437.200
CUTE-I 01 Oct 06:44:32 06:47:35 15° 91° (E) 06:50:38 437.470
Cubesat XI-IV 01 Oct 06:45:32 06:48:37 15° 91° (E) 06:51:43 437.490
AO-85 01 Oct 06:49:46 06:53:23 31° 246° (WSW) 06:56:50 145.980
GOMX 1 01 Oct 07:12:40 07:16:27 29° 95° (E) 07:20:06 467.674
DOVE 4 01 Oct 07:16:58 07:18:50 13° 90° (E) 07:20:42 437.250
STRAND 1 01 Oct 07:20:14 07:24:47 34° 68° (ENE) 07:29:20 437.568
GONETS M04 01 Oct 07:21:42 07:24:40 12° 73° (ENE) 07:27:39
CUSAT 1 01 Oct 07:37:27 07:44:11 38° 273° (W) 07:49:47 437.405
BRITE-PL 01 Oct 07:41:50 07:46:25 52° 288° (WNW) 07:50:39 437.365/2234.400
HORYU 2 01 Oct 07:45:26 07:49:15 28° 292° (WNW) 07:53:04 437.375
RS-15 01 Oct 07:49:07 07:58:06 25° 260° (W) 08:06:57 29.354- 29.394
HO-68 01 Oct 07:51:47 07:53:44 11° 86° (E) 07:55:40 435.675
NOAA 15 01 Oct 07:54:21 07:59:41 82° 103° (ESE) 08:04:58 137.62
NOAA 18 01 Oct 07:54:45 08:00:06 52° 101° (E) 08:05:27 137.9125
DANDE 01 Oct 07:59:29 08:07:46 63° 267° (W) 08:15:08 436.750
CINEMA 3 01 Oct 08:03:15 08:03:53 10° 90° (E) 08:04:30 145.822/145.860
LilacSat-2 01 Oct 08:15:15 08:19:00 52° 286° (WNW) 08:22:45 437.200
O/OREOS (USA 219) 01 Oct 08:21:58 08:26:10 35° 299° (WNW) 08:30:25 437.305
CUTE-I 01 Oct 08:22:46 08:28:06 68° 287° (WNW) 08:33:25 437.470
Cubesat XI-IV 01 Oct 08:23:50 08:29:10 67° 287° (WNW) 08:34:29 437.490
Cosmos 2499 01 Oct 08:24:36 08:30:10 26° 84° (E) 08:35:44 435.465 / 435.565
BEESAT 3 01 Oct 08:37:30 08:40:10 17° 43° (NE) 08:42:49 437.485
SEEDS 01 Oct 08:45:50 08:48:32 16° 92° (E) 08:51:13 437.485
CUTE 1.7 + AOD 2 01 Oct 08:50:34 08:54:13 26° 95° (E) 08:57:51 437.475
GOMX 1 01 Oct 08:51:01 08:54:25 23° 293° (WNW) 08:57:43 467.674
CANX-2 01 Oct 08:52:25 08:56:19 32° 97° (E) 09:00:09 2200.000
DOVE 4 01 Oct 08:52:51 08:56:53 49° 287° (WNW) 09:00:52 437.250
AAUSAT CUBESAT 2 01 Oct 08:58:41 09:00:05 11° 90° (E) 09:01:28 437.432
STRAND 1 01 Oct 08:59:33 09:03:57 29° 264° (W) 09:08:23 437.568
GONETS M04 01 Oct 09:10:58 09:19:41 69° 93° (E) 09:28:29
PRISM 01 Oct 09:24:46 09:28:51 55° 74° (ENE) 09:32:57 437.425
HO-68 01 Oct 09:35:25 09:42:36 73° 104° (ESE) 09:49:44 435.675
NOAA 15 01 Oct 09:36:05 09:38:44 14° 301° (WNW) 09:41:24 137.62
NOAA 18 01 Oct 09:36:16 09:40:23 22° 298° (WNW) 09:44:30 137.9125
CINEMA 3 01 Oct 09:37:15 09:41:25 65° 284° (WNW) 09:45:41 145.822/145.860
BEESAT 2 01 Oct 09:40:11 09:43:51 33° 50° (NE) 09:47:29 435.950
COMPASS 1 01 Oct 09:44:32 09:48:39 50° 99° (E) 09:52:44 437.405
DANDE 01 Oct 09:46:05 09:48:46 12° 286° (WNW) 09:51:23 436.750
PHONESAT 2.4 01 Oct 09:46:50 09:49:01 19° 154° (SSE) 09:51:12 2401.200-2431.200
ANTELSAT 01 Oct 10:00:15 10:03:04 18° 65° (ENE) 10:05:54 437.575/2403.000
FUNcube-1 01 Oct 10:06:14 10:09:56 26° 95° (E) 10:13:41 145.935
BEESAT 3 01 Oct 10:14:14 10:18:08 53° 241° (WSW) 10:22:00 437.485
Cosmos 2499 01 Oct 10:15:53 10:22:47 53° 283° (WNW) 10:29:42 435.465 / 435.565
TIGRISAT 01 Oct 10:18:53 10:22:23 26° 68° (ENE) 10:25:54 435.000
CUBEBUG 2 01 Oct 10:19:12 10:23:33 85° 284° (WNW) 10:28:02 437.445
SEEDS 01 Oct 10:20:23 10:24:25 42° 288° (WNW) 10:28:26 437.485
CUTE 1.7 + AOD 2 01 Oct 10:26:22 10:29:58 27° 291° (WNW) 10:33:34 437.475
CANX-2 01 Oct 10:28:37 10:31:58 23° 293° (WNW) 10:35:19 2200.000
UWE-3 01 Oct 10:29:15 10:33:38 82° 102° (ESE) 10:38:07 435.000/436.395/437.385
AAUSAT CUBESAT 2 01 Oct 10:31:47 10:35:56 59° 286° (WNW) 10:40:01 437.432
HUMSAT D 01 Oct 10:39:03 10:40:43 12° 90° (E) 10:42:24 437.325/437.525
Oscar 11 01 Oct 10:40:48 10:45:10 65° 101° (ESE) 10:49:29 145.826/435.025
ZACube-1 01 Oct 10:49:59 10:54:22 87° 103° (ESE) 10:58:50 437.345
AIST 2 01 Oct 10:58:55 11:00:30 12° 38° (NE) 11:02:05 435.215
UNISAT 6 01 Oct 10:59:54 11:04:09 79° 74° (ENE) 11:08:25 437.425
PRISM 01 Oct 11:02:47 11:04:29 12° 269° (W) 11:06:10 437.425
GONETS M04 01 Oct 11:10:06 11:17:15 27° 294° (WNW) 11:24:28
BEESAT 2 01 Oct 11:18:18 11:21:29 23° 247° (WSW) 11:24:40 435.950
DELFI C3 01 Oct 11:19:01 11:23:03 70° 102° (ESE) 11:27:01 145.870
COMPASS 1 01 Oct 11:21:25 11:23:46 15° 296° (WNW) 11:26:08 437.405
DUCHIFAT 1 01 Oct 11:21:48 11:24:16 16° 65° (ENE) 11:26:46 145.980
PHONESAT 2.4 01 Oct 11:21:54 11:24:47 60° 170° (S) 11:27:40 2401.200-2431.200
HO-68 01 Oct 11:24:16 11:29:38 23° 303° (WNW) 11:34:59 435.675
QB50P1 01 Oct 11:27:32 11:30:39 21° 67° (ENE) 11:33:47 145.935-145.965
ANTELSAT 01 Oct 11:35:27 11:39:28 41° 262° (W) 11:43:31 437.575/2403.000
POPSAT HIP 1 01 Oct 11:40:55 11:44:29 28° 69° (ENE) 11:48:04 437.405
FUNcube-1 01 Oct 11:42:23 11:46:07 28° 291° (WNW) 11:49:55 145.935
JAS-2 01 Oct 11:45:22 11:51:26 37° 64° (ENE) 11:58:08 435.910
NANOSAT C BR1 01 Oct 11:54:08 11:57:59 37° 71° (ENE) 12:01:50 145.865
TIGRISAT 01 Oct 11:55:24 11:59:00 26° 264° (W) 12:02:37 435.000
UWE-3 01 Oct 12:08:54 12:09:28 10° 298° (WNW) 12:10:03 435.000/436.395/437.385
HUMSAT D 01 Oct 12:12:28 12:16:41 59° 286° (WNW) 12:20:54 437.325/437.525
Oscar 11 01 Oct 12:18:52 12:20:44 13° 297° (WNW) 12:22:36 145.826/435.025
ESTCUBE 1 01 Oct 12:19:49 12:23:32 24° 95° (E) 12:27:13 437.505/2401.250
QB50P2 01 Oct 12:20:57 12:25:10 86° 76° (ENE) 12:29:23 145.880/145.840
POLYITAN 1 01 Oct 12:23:09 12:27:19 86° 77° (ENE) 12:31:32 437.675
AIST 2 01 Oct 12:35:27 12:39:41 80° 58° (ENE) 12:43:53 435.215
BUGSAT 1 01 Oct 12:41:44 12:45:39 47° 73° (ENE) 12:49:33 437.445
AISAT 01 Oct 12:55:22 12:59:11 29° 96° (E) 13:02:59 437.250
DUCHIFAT 1 01 Oct 12:55:34 12:59:35 46° 261° (W) 13:03:37 145.980
Oscar 19 01 Oct 12:56:44 13:00:12 18° 62° (ENE) 13:03:39 437.125/150
DELFI C3 01 Oct 12:57:06 12:57:16 10° 298° (WNW) 12:57:27 145.870
PHONESAT 2.4 01 Oct 12:57:52 13:00:47 70° 187° (S) 13:03:43 2401.200-2431.200
PCSat 01 Oct 12:59:52 13:04:52 36° 52° (NE) 13:09:49 145.827
QB50P1 01 Oct 13:02:24 13:06:12 34° 262° (W) 13:10:02 145.935-145.965
YUBILEINY 01 Oct 13:03:10 13:08:59 19° 62° (ENE) 13:14:46 435.215
50 SAT 01 Oct 13:12:35 13:16:02 39° 99° (E) 13:19:28 437.505
POPSAT HIP 1 01 Oct 13:16:48 13:20:14 24° 265° (W) 13:23:40 437.405
DX 1 01 Oct 13:17:04 13:20:51 29° 96° (E) 13:24:36 434.975-435.025
JAS-2 01 Oct 13:30:00 13:36:16 44° 264° (W) 13:43:18 435.910
NANOSAT C BR1 01 Oct 13:30:56 13:33:50 18° 267° (W) 13:36:44 145.865
CUBEBUG 1 01 Oct 13:32:04 13:36:25 86° 281° (W) 13:40:43 437.445
VELOX 1 01 Oct 13:38:11 13:42:37 82° 103° (ESE) 13:47:00 145.980
AUBIESAT-1 01 Oct 13:49:17 13:52:18 32° 104° (ESE) 13:55:22 437.475
SPROUT 01 Oct 13:54:03 13:58:18 70° 102° (ESE) 14:02:33 437.525
ESTCUBE 1 01 Oct 13:56:18 14:00:20 32° 291° (WNW) 14:04:19 437.505/2401.250
AO-7 01 Oct 14:01:55 14:06:02 15° 45° (NE) 14:10:08 29.400- 29.500
UKube-1 01 Oct 14:16:18 14:20:37 80° 285° (WNW) 14:24:55 .
BUGSAT 1 01 Oct 14:19:13 14:21:16 13° 268° (W) 14:23:18 437.445
Gurwin Techsat 1B 01 Oct 14:24:19 14:29:29 54° 71° (ENE) 14:34:40 435.225
M-CUBED/EXP-1 PRIME 01 Oct 14:30:09 14:33:19 48° 291° (WNW) 14:36:31 437.505
AISAT 01 Oct 14:31:56 14:35:33 26° 293° (WNW) 14:39:09 437.250
Oscar 19 01 Oct 14:33:54 14:39:01 60° 259° (W) 14:44:11 437.125/150
PHONESAT 2.4 01 Oct 14:34:05 14:36:38 27° 202° (SSW) 14:39:11 2401.200-2431.200
PCSat 01 Oct 14:43:21 14:48:12 34° 250° (WSW) 14:53:01 145.827
50 SAT 01 Oct 14:47:17 14:49:10 14° 295° (WNW) 14:51:02 437.505
DX 1 01 Oct 14:53:22 14:56:56 25° 293° (WNW) 15:00:29 434.975-435.025
Cosmos 2491 01 Oct 14:55:19 15:03:34 48° 88° (E) 15:11:53 435.465 / 435.565
YUBILEINY 01 Oct 14:58:19 15:07:04 89° 84° (E) 15:15:47 435.215
TISAT 1 01 Oct 14:59:52 15:04:03 73° 103° (ESE) 15:08:12 437.305
Cosmos 2504 01 Oct 15:14:26 15:21:39 48° 76° (ENE) 15:29:21 435.465 / 435.565
VELOX 1 01 Oct 15:17:44 15:18:23 10° 300° (WNW) 15:19:03 145.980
SO-50 01 Oct 15:21:33 15:26:24 82° 123° (ESE) 15:31:12 436.795
AUBIESAT-1 01 Oct 15:24:46 15:26:32 14° 299° (WNW) 15:28:19 437.475
SPROUT 01 Oct 15:32:22 15:33:40 11° 298° (WNW) 15:34:56 437.525
ITAMSAT 1 01 Oct 15:35:46 15:40:54 70° 73° (ENE) 15:46:05 435.822/435.867
ITUPSAT 1 01 Oct 15:39:38 15:44:03 35° 97° (E) 15:48:25 437.325
AO-7 01 Oct 15:49:02 15:57:11 63° 66° (ENE) 16:05:20 29.400- 29.500
SWISSCUBE 01 Oct 15:50:15 15:54:57 51° 100° (E) 15:59:37 437.505
BEESAT 01 Oct 16:02:43 16:07:30 61° 101° (ESE) 16:12:14 436.000
Gurwin Techsat 1B 01 Oct 16:06:03 16:09:44 19° 268° (W) 16:13:28 435.225
AIST 1 01 Oct 16:07:20 16:10:50 24° 74° (ENE) 16:14:18
TISAT 1 01 Oct 16:38:15 16:39:05 11° 299° (WNW) 16:39:57 437.305
KKS-1 01 Oct 16:49:17 16:52:31 20° 94° (E) 16:55:44 437.445
O/OREOS (USA 219) 01 Oct 16:52:18 16:56:44 44° 63° (ENE) 17:01:07 437.305
Cosmos 2491 01 Oct 16:52:30 17:00:32 39° 288° (WNW) 17:08:40 435.465 / 435.565
MOZHAYETS 4 01 Oct 16:52:59 16:57:18 37° 97° (E) 17:01:35
YUBILEINY 01 Oct 16:57:20 17:02:34 18° 283° (WNW) 17:07:49 435.215
SO-50 01 Oct 17:04:19 17:07:28 17° 320° (NW) 17:10:35 436.795
HORYU 2 01 Oct 17:07:09 17:10:48 26° 67° (ENE) 17:14:26 437.375
Cosmos 2504 01 Oct 17:08:14 17:14:46 33° 274° (W) 17:21:43 435.465 / 435.565
STARS 01 Oct 17:11:55 17:14:40 16° 93° (E) 17:17:24 437.465
BRITE-PL 01 Oct 17:14:12 17:18:33 23° 65° (ENE) 17:22:48 437.365/2234.400
ITUPSAT 1 01 Oct 17:17:45 17:21:42 26° 294° (WNW) 17:25:39 437.325
ITAMSAT 1 01 Oct 17:18:16 17:20:52 14° 270° (W) 17:23:31 435.822/435.867
SWISSCUBE 01 Oct 17:29:04 17:32:21 19° 297° (WNW) 17:35:37 437.505
NOAA 15 01 Oct 17:37:02 17:40:32 18° 61° (ENE) 17:44:02 137.62
BEESAT 01 Oct 17:41:56 17:44:46 16° 298° (WNW) 17:47:34 436.000
AO-7 01 Oct 17:43:25 17:50:23 29° 264° (W) 17:57:24 29.400- 29.500
NOAA 18 01 Oct 17:43:52 17:46:45 15° 58° (ENE) 17:49:38 137.9125
AIST 1 01 Oct 17:44:48 17:48:23 26° 271° (W) 17:51:56
RS-15 01 Oct 17:56:09 17:58:46 11° 92° (E) 18:01:25 29.354- 29.394
CUTE-I 01 Oct 18:05:59 18:10:18 26° 65° (ENE) 18:14:39 437.470
Cubesat XI-IV 01 Oct 18:07:09 18:11:31 27° 65° (ENE) 18:15:54 437.490
GOMX 1 01 Oct 18:19:43 18:24:36 38° 71° (ENE) 18:29:14 467.674
DOVE 4 01 Oct 18:21:57 18:25:03 17° 65° (ENE) 18:28:03 437.250
HO-68 01 Oct 18:23:09 18:24:29 11° 48° (NE) 18:25:49 435.675
CUBESAT XI-V 01 Oct 18:23:52 18:28:22 44° 98° (E) 18:32:47 437.345
KKS-1 01 Oct 18:25:06 18:29:12 38° 290° (WNW) 18:33:17 437.445
MOZHAYETS 4 01 Oct 18:30:36 18:34:14 23° 294° (WNW) 18:37:52
O/OREOS (USA 219) 01 Oct 18:32:39 18:35:46 18° 260° (W) 18:38:51 437.305
HORYU 2 01 Oct 18:43:24 18:47:14 29° 263° (W) 18:51:06 437.375
STARS 01 Oct 18:47:04 18:51:14 45° 288° (WNW) 18:55:23 437.465
BRITE-PL 01 Oct 18:51:07 18:56:39 52° 261° (W) 19:02:02 437.365/2234.400
CUSAT 1 01 Oct 18:54:53 19:00:58 39° 88° (E) 19:08:02 437.405
LilacSat-2 01 Oct 18:56:50 19:00:34 72° 77° (ENE) 19:04:21 437.200
CINEMA 3 01 Oct 19:05:27 19:06:29 11° 63° (ENE) 19:07:31 145.822/145.860
